When you browse on this site, cookies collect data to enhance your experience and personalize the content and advertising you see.
Visit our Privacy Policy to learn more. By continuing to use the site, you agree to this use of cookies and data.
  • In Germany
  • List of Countries
  • For 7 days
  • Water Temperature
  • Weather Map
  • Weather Widgets
  • user-avatar
    Login

    Hourly Weather Sumgayit

    Today, 9 December, Monday

    Time Temperature Precipitation Wind Pressure Humidity
    00:00 +6°C° 0.7 mm 2 mps 738 mmHg 87%
    01:00 +6°C° 0.8 mm 2 mps 738 mmHg 87%
    02:00 +6°C° 0.8 mm 2 mps 738 mmHg 87%
    03:00 +7°C° 0 mm 3 mps 737 mmHg 89%
    04:00 +7°C° 0.7 mm 3 mps 738 mmHg 90%
    05:00 +6°C° 0.7 mm 4 mps 738 mmHg 90%
    06:00 +6°C° 0.7 mm 4 mps 738 mmHg 90%
    07:00 +6°C° 0.8 mm 4 mps 739 mmHg 87%
    08:00 +5°C° 0.8 mm 5 mps 739 mmHg 83%
    09:00 +5°C° 0.8 mm 5 mps 740 mmHg 80%
    10:00 +6°C° 0.3 mm 4 mps 740 mmHg 79%
    11:00 +6°C° 0.3 mm 4 mps 740 mmHg 78%
    12:00 +7°C° 0.3 mm 3 mps 740 mmHg 77%
    13:00 +7°C° 0.2 mm 3 mps 740 mmHg 77%
    14:00 +7°C° 0.2 mm 3 mps 740 mmHg 77%
    15:00 +6°C° 0.2 mm 4 mps 740 mmHg 77%
    16:00 +7°C° 0.1 mm 3 mps 741 mmHg 77%
    17:00 +7°C° 0.1 mm 3 mps 741 mmHg 76%
    18:00 +7°C° 0.1 mm 3 mps 741 mmHg 75%
    19:00 +7°C° 0 mm 3 mps 742 mmHg 77%
    20:00 +7°C° 0 mm 3 mps 742 mmHg 79%
    21:00 +5°C° 0 mm 3 mps 742 mmHg 81%
    22:00 +6°C° 0 mm 2 mps 742 mmHg 81%
    23:00 +6°C° 0 mm 2 mps 742 mmHg 81%

    Tomorrow, 10 December, Tuesday

    Time Temperature Precipitation Wind Pressure Humidity
    00:00 +7°C° 0 mm 1 mps 742 mmHg 82%
    01:00 +8°C° 0 mm 1 mps 742 mmHg 82%
    02:00 +8°C° 0 mm 1 mps 742 mmHg 82%
    03:00 +8°C° 0 mm 1 mps 742 mmHg 82%
    04:00 +7°C° 0 mm 0 mps 742 mmHg 82%
    05:00 +6°C° 0 mm 0 mps 742 mmHg 83%
    06:00 +6°C° 0 mm 0 mps 743 mmHg 83%
    07:00 +7°C° 0 mm 0 mps 743 mmHg 82%
    08:00 +8°C° 0 mm 1 mps 743 mmHg 80%
    09:00 +8°C° 0 mm 1 mps 744 mmHg 79%
    10:00 +9°C° 0 mm 1 mps 743 mmHg 77%
    11:00 +9°C° 0 mm 1 mps 743 mmHg 76%
    12:00 +9°C° 0 mm 2 mps 743 mmHg 74%
    13:00 +9°C° 0 mm 2 mps 743 mmHg 74%
    14:00 +9°C° 0 mm 2 mps 742 mmHg 74%
    15:00 +9°C° 0 mm 2 mps 742 mmHg 73%
    16:00 +9°C° 0 mm 1 mps 742 mmHg 77%
    17:00 +9°C° 0 mm 1 mps 742 mmHg 80%
    18:00 +9°C° 0 mm 1 mps 742 mmHg 83%
    19:00 +9°C° 0.1 mm 1 mps 742 mmHg 85%
    20:00 +9°C° 0.1 mm 1 mps 742 mmHg 86%
    21:00 +9°C° 0.1 mm 1 mps 742 mmHg 87%
    22:00 +9°C° 0.2 mm 1 mps 742 mmHg 88%
    23:00 +9°C° 0.2 mm 1 mps 742 mmHg 89%

    Day after tomorrow, 11 December, Wednesday

    Time Temperature Precipitation Wind Pressure Humidity
    00:00 +9°C° 0.2 mm 1 mps 742 mmHg 90%
    01:00 +9°C° 0.2 mm 1 mps 742 mmHg 90%
    02:00 +8°C° 0.2 mm 1 mps 742 mmHg 90%
    03:00 +8°C° 0.2 mm 1 mps 742 mmHg 90%
    04:00 +7°C° 0.1 mm 2 mps 741 mmHg 90%
    05:00 +7°C° 0.1 mm 2 mps 741 mmHg 91%
    06:00 +7°C° 0.1 mm 2 mps 741 mmHg 91%
    07:00 +7°C° 0 mm 2 mps 742 mmHg 89%
    08:00 +7°C° 0 mm 3 mps 742 mmHg 88%
    09:00 +7°C° 0 mm 3 mps 742 mmHg 87%
    10:00 +7°C° 0 mm 3 mps 742 mmHg 84%
    11:00 +8°C° 0 mm 3 mps 741 mmHg 82%
    12:00 +8°C° 0 mm 3 mps 741 mmHg 80%
    13:00 +8°C° 0 mm 3 mps 741 mmHg 79%
    14:00 +8°C° 0 mm 3 mps 741 mmHg 79%
    15:00 +8°C° 0 mm 3 mps 741 mmHg 78%
    16:00 +7°C° 0 mm 3 mps 741 mmHg 79%
    17:00 +7°C° 0 mm 3 mps 741 mmHg 81%
    18:00 +7°C° 0 mm 3 mps 742 mmHg 82%
    19:00 +5°C° 0 mm 3 mps 742 mmHg 83%
    20:00 +6°C° 0 mm 2 mps 742 mmHg 84%
    21:00 +6°C° 0 mm 2 mps 742 mmHg 85%
    22:00 +7°C° 0 mm 1 mps 742 mmHg 87%
    23:00 +6°C° 0 mm 1 mps 742 mmHg 88%

    12 December, Thursday

    Time Temperature Precipitation Wind Pressure Humidity
    00:00 +5°C° 0 mm 0 mps 742 mmHg 89%
    01:00 +5°C° 0 mm 0 mps 742 mmHg 89%
    02:00 +5°C° 0 mm 0 mps 742 mmHg 89%
    03:00 +5°C° 0 mm 0 mps 741 mmHg 89%
    04:00 +5°C° 0 mm 0 mps 742 mmHg 88%
    05:00 +5°C° 0 mm 0 mps 742 mmHg 88%
    06:00 +6°C° 0 mm 1 mps 742 mmHg 87%
    07:00 +6°C° 0 mm 1 mps 742 mmHg 84%
    08:00 +7°C° 0 mm 1 mps 742 mmHg 81%
    09:00 +7°C° 0 mm 1 mps 742 mmHg 78%
    10:00 +7°C° 0 mm 2 mps 742 mmHg 74%
    11:00 +8°C° 0 mm 2 mps 741 mmHg 70%
    12:00 +8°C° 0 mm 3 mps 741 mmHg 66%
    13:00 +9°C° 0 mm 3 mps 741 mmHg 66%
    14:00 +8°C° 0 mm 4 mps 740 mmHg 66%
    15:00 +8°C° 0 mm 4 mps 740 mmHg 66%
    16:00 +8°C° 0 mm 3 mps 740 mmHg 70%
    17:00 +8°C° 0 mm 2 mps 740 mmHg 74%
    18:00 +7°C° 0 mm 2 mps 740 mmHg 78%
    19:00 +8°C° 0 mm 1 mps 740 mmHg 80%
    20:00 +8°C° 0 mm 1 mps 740 mmHg 81%
    21:00 +7°C° 0 mm 1 mps 740 mmHg 83%
    22:00 +7°C° 0 mm 1 mps 740 mmHg 83%
    23:00 +8°C° 0 mm 1 mps 739 mmHg 82%

    13 December, Friday

    Time Temperature Precipitation Wind Pressure Humidity
    00:00 +8°C° 0 mm 1 mps 739 mmHg 81%
    01:00 +6°C° 0 mm 2 mps 739 mmHg 82%
    02:00 +6°C° 0 mm 2 mps 739 mmHg 83%
    03:00 +5°C° 0 mm 3 mps 738 mmHg 83%
    04:00 +5°C° 0 mm 3 mps 738 mmHg 85%
    05:00 +5°C° 0 mm 3 mps 739 mmHg 86%
    06:00 +5°C° 0 mm 4 mps 739 mmHg 87%
    07:00 +5°C° 0 mm 4 mps 739 mmHg 87%
    08:00 +5°C° 0 mm 5 mps 739 mmHg 86%
    09:00 +5°C° 0 mm 5 mps 739 mmHg 85%
    10:00 +5°C° 0 mm 4 mps 739 mmHg 83%
    11:00 +5°C° 0 mm 4 mps 739 mmHg 80%
    12:00 +5°C° 0 mm 3 mps 739 mmHg 78%
    13:00 +5°C° 0 mm 3 mps 739 mmHg 77%
    14:00 +5°C° 0 mm 3 mps 739 mmHg 75%
    15:00 +5°C° 0 mm 3 mps 739 mmHg 74%
    16:00 +5°C° 0 mm 3 mps 739 mmHg 75%
    17:00 +5°C° 0 mm 3 mps 739 mmHg 76%
    18:00 +5°C° 0 mm 3 mps 739 mmHg 77%
    19:00 +6°C° 0 mm 2 mps 739 mmHg 78%
    20:00 +5°C° 0 mm 2 mps 739 mmHg 79%
    21:00 +5°C° 0 mm 2 mps 739 mmHg 80%
    22:00 +6°C° 0 mm 1 mps 739 mmHg 80%
    23:00 +6°C° 0 mm 1 mps 739 mmHg 80%

    14 December, Saturday

    Time Temperature Precipitation Wind Pressure Humidity
    00:00 +6°C° 0 mm 1 mps 739 mmHg 80%
    01:00 +6°C° 0 mm 1 mps 739 mmHg 81%
    02:00 +6°C° 0 mm 1 mps 739 mmHg 81%
    03:00 +5°C° 0 mm 0 mps 739 mmHg 81%
    04:00 +5°C° 0 mm 0 mps 739 mmHg 82%
    05:00 +5°C° 0 mm 0 mps 739 mmHg 83%
    06:00 +5°C° 0 mm 0 mps 739 mmHg 85%
    07:00 +5°C° 0 mm 0 mps 740 mmHg 83%
    08:00 +6°C° 0 mm 0 mps 740 mmHg 82%
    09:00 +6°C° 0 mm 0 mps 740 mmHg 81%
    10:00 +6°C° 0 mm 0 mps 740 mmHg 80%
    11:00 +6°C° 0 mm 0 mps 740 mmHg 79%
    12:00 +8°C° 0 mm 1 mps 740 mmHg 77%
    13:00 +8°C° 0 mm 1 mps 739 mmHg 76%
    14:00 +8°C° 0 mm 1 mps 739 mmHg 75%
    15:00 +8°C° 0 mm 1 mps 739 mmHg 74%
    16:00 +7°C° 0 mm 2 mps 739 mmHg 77%
    17:00 +7°C° 0 mm 2 mps 739 mmHg 81%
    18:00 +7°C° 0 mm 2 mps 739 mmHg 84%
    19:00 +7°C° 0 mm 2 mps 739 mmHg 85%
    20:00 +7°C° 0 mm 2 mps 740 mmHg 87%
    21:00 +6°C° 0 mm 2 mps 740 mmHg 88%
    22:00 +6°C° 0 mm 2 mps 740 mmHg 89%
    23:00 +5°C° 0 mm 3 mps 740 mmHg 89%
    Show more